Weather History for Nasa Shuttle, FL

Change the Weather History Date:

Sunday, October 7, 2012

  Actual Average Record
Temperature  
Mean Temperature 80 °F -  
Max Temperature 87 °F 81 °F 89 °F (1998)
Min Temperature 73 °F 69 °F 62 °F (2010)
Cooling Degree Days 14    
Growing Degree Days 30 (Base 50)    
Moisture  
Dew Point 74 °F    
Average Humidity 88    
Maximum Humidity 100    
Minimum Humidity 64    
Precipitation  
Precipitation 0.01 in - - ()
Sea Level Pressure  
Sea Level Pressure 29.97 in    
Wind  
Wind Speed 3 mph (NE)    
Max Wind Speed 9 mph    
Max Gust Speed -    
Visibility 8 miles    
Events Fog , Rain    
Averages and records for this station are not official NWS values.
T = Trace of Precipitation, MM = Missing Value Source: NWS Daily Summary

Daily Weather History Graph

Daily Weather History Graph

Search for Another Location

Airport:

Trip Planner

Search our weather history database for the weather conditions in past years. The results will help you decide how hot, cold, wet, or windy it might be!

Date:

Astronomy

Oct. 07, 2012 Rise Set
Actual Time 7:19 AM EDT 7:01 PM EDT
Civil Twilight 6:55 AM EDT 7:24 PM EDT
Nautical Twilight 6:28 AM EDT 7:52 PM EDT
Astronomical Twilight 6:00 AM EDT 8:19 PM EDT
Moon No Moon Rise 1:36 PM EDT (10/7)
Length of Visible Light 12h 29m
Length of Day
11h 41m
Waning Gibbous, 56% of the Moon is Illuminated
Oct 7
Waning Gibbous
Oct 8
Last Quarter
Oct 15
New
Oct 21
First Quarter
Oct 29
Full

Hourly Weather History & Observations

Time (EDT) Temp. Heat Index Dew Point Humidity Pressure Visibility Wind Dir Wind Speed Gust Speed Precip Events Conditions
12:50 AM 75.2 °F - 73.4 °F 94% 29.96 in 10.0 mi Calm Calm - N/A Rain Light Rain
12:55 AM 74.8 °F - 73.9 °F 97% 29.96 in 10.0 mi Calm Calm - 0.00 in Rain Light Rain
1:00 AM 75.2 °F - 73.4 °F 94% 29.96 in 6.0 mi Calm Calm - N/A   Clear
1:55 AM 73.2 °F - 73.0 °F 99% 29.96 in 10.0 mi Calm Calm - 0.00 in   Scattered Clouds
2:55 AM 75.4 °F - 75.0 °F 99% 29.95 in 10.0 mi Calm Calm - N/A   Clear
3:55 AM 73.2 °F - 72.9 °F 99% 29.94 in 10.0 mi Calm Calm - N/A   Clear
4:55 AM 73.8 °F - 73.6 °F 99% 29.94 in 10.0 mi WNW 5.8 mph - N/A   Clear
5:42 AM 73.4 °F - 73.4 °F 100% 29.94 in 8.0 mi NW 4.6 mph - N/A   Mostly Cloudy
5:44 AM 73.4 °F - 73.4 °F 100% 29.94 in 9.0 mi NW 4.6 mph - N/A   Mostly Cloudy
5:55 AM 74.1 °F - 73.8 °F 99% 29.95 in 10.0 mi NW 4.6 mph - N/A   Mostly Cloudy
5:57 AM 73.4 °F - 73.4 °F 100% 29.95 in 10.0 mi NW 4.6 mph - N/A   Scattered Clouds
6:13 AM 73.4 °F - 73.4 °F 100% 29.96 in 10.0 mi NW 3.5 mph - N/A   Mostly Cloudy
6:15 AM 73.4 °F - 73.4 °F 100% 29.96 in 10.0 mi NW 3.5 mph - N/A   Mostly Cloudy
6:55 AM 73.9 °F - 73.8 °F 99% 29.96 in 4.0 mi NNW 3.5 mph - N/A   Overcast
7:21 AM 73.4 °F - 73.4 °F 100% 29.96 in 2.5 mi NNE 3.5 mph - N/A   Mostly Cloudy
7:24 AM 73.4 °F - 73.4 °F 100% 29.96 in 1.8 mi NNE 3.5 mph - N/A   Mostly Cloudy
7:28 AM 73.4 °F - 73.4 °F 100% 29.96 in 1.5 mi NNE 3.5 mph - N/A   Scattered Clouds
7:32 AM 73.4 °F - 73.4 °F 100% 29.96 in 1.0 mi NNE 3.5 mph - N/A   Mist
7:34 AM 73.4 °F - 73.4 °F 100% 29.96 in 1.0 mi NNE 3.5 mph - N/A   Mist
7:36 AM 73.4 °F - 73.4 °F 100% 29.96 in 0.8 mi NNE 3.5 mph - N/A   Mist
7:55 AM 73.8 °F - 73.4 °F 99% 29.97 in 0.5 mi Calm Calm - N/A Fog Fog
8:00 AM 73.4 °F - 73.4 °F 100% 29.97 in 1.0 mi Calm Calm - N/A   Mist
8:02 AM 73.4 °F - 73.4 °F 100% 29.97 in 1.2 mi Calm Calm - N/A   Scattered Clouds
8:05 AM 75.2 °F - 73.4 °F 94% 29.97 in 2.0 mi Calm Calm - N/A   Scattered Clouds
8:07 AM 75.2 °F - 73.4 °F 94% 29.97 in 3.0 mi Calm Calm - N/A   Scattered Clouds
8:55 AM 76.6 °F - 76.5 °F 99% 29.98 in 10.0 mi NNE 3.5 mph - N/A   Clear
9:55 AM 79.3 °F - 76.3 °F 90% 29.99 in 10.0 mi NE 5.8 mph - 0.01 in   Partly Cloudy
10:41 AM 80.6 °F 86.2 °F 75.2 °F 84% 30.01 in 10.0 mi Variable 3.5 mph - N/A   Mostly Cloudy
10:55 AM 80.2 °F 85.5 °F 75.4 °F 85% 30.00 in 10.0 mi NE 5.8 mph - N/A   Mostly Cloudy
11:20 AM 80.6 °F 86.2 °F 75.2 °F 84% 30.00 in 10.0 mi ENE 8.1 mph - N/A   Scattered Clouds
11:27 AM 80.6 °F 86.2 °F 75.2 °F 84% 30.00 in 10.0 mi Variable 4.6 mph - N/A   Mostly Cloudy
11:34 AM 82.4 °F 90.9 °F 77.0 °F 84% 30.00 in 10.0 mi NE 8.1 mph - N/A   Scattered Clouds
11:44 AM 82.4 °F 89.5 °F 75.2 °F 79% 30.00 in 10.0 mi NE 6.9 mph - N/A   Mostly Cloudy
11:55 AM 83.8 °F 91.8 °F 75.0 °F 75% 30.00 in 10.0 mi Variable 5.8 mph - N/A   Scattered Clouds
12:16 PM 82.4 °F 88.2 °F 73.4 °F 74% 30.00 in 10.0 mi Variable 6.9 mph - N/A   Mostly Cloudy
12:26 PM 84.2 °F 92.3 °F 75.2 °F 74% 30.00 in 10.0 mi ENE 6.9 mph - N/A   Scattered Clouds
12:28 PM 86.0 °F 95.1 °F 75.2 °F 70% 30.00 in 10.0 mi ENE 5.8 mph - N/A   Mostly Cloudy
12:30 PM 86.0 °F 95.1 °F 75.2 °F 70% 30.00 in 10.0 mi ENE 5.8 mph - N/A   Scattered Clouds
12:55 PM 84.4 °F 91.7 °F 73.9 °F 71% 29.99 in 10.0 mi Variable 3.5 mph - N/A   Scattered Clouds
1:55 PM 86.9 °F 94.5 °F 73.2 °F 64% 29.99 in 10.0 mi ESE 5.8 mph - N/A   Scattered Clouds
2:55 PM 85.1 °F 92.9 °F 74.1 °F 70% 29.96 in 10.0 mi East 8.1 mph - N/A   Scattered Clouds
3:33 PM 86.0 °F 95.1 °F 75.2 °F 70% 29.95 in 10.0 mi East 9.2 mph - N/A   Mostly Cloudy
3:36 PM 86.0 °F 95.1 °F 75.2 °F 70% 29.95 in 10.0 mi East 8.1 mph - N/A   Scattered Clouds
3:45 PM 84.2 °F 90.9 °F 73.4 °F 70% 29.95 in 10.0 mi ENE 8.1 mph - N/A   Mostly Cloudy
3:55 PM 83.8 °F 90.4 °F 73.6 °F 71% 29.95 in 10.0 mi East 8.1 mph - N/A   Mostly Cloudy
4:55 PM 85.8 °F 92.2 °F 72.5 °F 64% 29.95 in 10.0 mi East 6.9 mph - N/A   Clear
5:55 PM 81.9 °F 86.8 °F 72.5 °F 73% 29.95 in 10.0 mi ESE 5.8 mph - N/A   Clear
6:55 PM 79.3 °F - 72.9 °F 80% 29.96 in 10.0 mi Calm Calm - N/A   Clear
7:55 PM 76.1 °F - 73.2 °F 91% 29.98 in 10.0 mi Calm Calm - N/A   Clear
8:55 PM 77.0 °F - 73.8 °F 90% 29.99 in 10.0 mi SE 3.5 mph - N/A   Clear
9:55 PM 77.0 °F - 73.8 °F 90% 30.00 in 10.0 mi Calm Calm - N/A   Clear
10:55 PM 76.8 °F - 71.8 °F 84% 30.00 in 10.0 mi South 5.8 mph - N/A   Clear
11:55 PM 74.1 °F - 71.1 °F 90% 30.00 in 8.0 mi Calm Calm - N/A   Clear